パンスターズ彗星

C/2017 S3 ( PanSTARRS )

English version
Home page
Updated on July 22, 2020

---------------------------------------------------------------------

・ プロフィール

発見日 2017年9月23日
発見光度 21.5等
発見者 Pan-STARRS 1 telescope (Haleakala)

・ 写真集

・ 軌道要素

Epoch 2018 Aug. 30.0 TT = JDT 2458360.5
T 2018 Aug. 15.95648 TT                                 MPCW
q   0.2085523            (2000.0)            P               Q
z  +0.0003161      Peri.  255.78201     +0.21887938     -0.96353989
                   Node   171.03523     +0.20766602     +0.20010323
e   0.9999341      Incl.   99.03918     -0.95339742     -0.17762202
From 823 observations 2017 Aug. 17-2018 Aug. 3, mean residual 0".8.
     Nongravitational parameters A1 = +24.25, A2 = +1.3752.

・ 星図

・ 光度変化

        m1 = 10.0 + 5 logΔ + 10.0 log r          [   ,-14]  (              〜2018年 8月 1日)
        m1 = 12.0 + 5 logΔ + 20   log r(t + 30)  [-14,   ]  (2018年 8月 1日〜              )

        ※ 灰色の曲線は、m1 = 10.0 + 5 logΔ + 10.0 log r の光度曲線です。

---------------------------------------------------------------------

軌道要素はM.P.E.C. 2018-Q62に掲載されたものです。
星図はステラナビゲータ Ver.10 (アストロアーツ) で作成したものです。
光度グラフはComet for Windowsで作成したものです。

---------------------------------------------------------------------

Copyright(C) Seiichi Yoshida (comet@aerith.net). All rights reserved.